DW9004 Weather Reports


time (UTC)temp
F
wind
direction
speed
knots
gust
knots
rain 1hr
in
rain 24hr
in
rain mn
in
humidity
%
barometer
mb
20260507153041 66 85 0.0 1.7 0.00 0.00 0.00 49 1011.3
20260507151537 64 130 0.0 3.5 0.00 0.00 0.00 53 1011.3
20260507150036 60 218 0.0 1.7 0.00 0.00 0.00 64 1011.3
20260507144535 56 304 0.0 1.7 0.00 0.00 0.00 73 1011.3
20260507143038 53 325 0.0 0.9 0.00 0.00 0.00 77 1011.3
20260507141533 52 211 0.0 1.7 0.00 0.00 0.00 78 1011.2
20260507140034 50 207 0.0 0.0 0.00 0.00 0.00 78 1011.1
20260507134533 50 211 0.0 0.9 0.00 0.00 0.00 78 1011.1
20260507133014 48 219 0.0 0.0 0.00 0.00 0.00 77 1011.0
20260507131520 49 218 0.0 0.0 0.00 0.00 0.00 76 1010.7
20260507130059 49 218 0.0 1.7 0.00 0.00 0.00 74 1010.6
20260507124558 49 349 0.0 0.0 0.00 0.00 0.00 75 1010.6
20260507123058 49 284 0.0 1.7 0.00 0.00 0.00 76 1010.5
20260507121555 47 350 0.9 2.6 0.00 0.00 0.00 78 1010.3
20260507114551 49 230 0.0 0.9 0.00 0.00 0.00 74 1010.1
20260507113052 49 351 0.0 0.9 0.00 0.00 0.00 75 1010.4
20260507111548 49 347 0.0 1.7 0.00 0.00 0.00 73 1010.2
20260507110036 50 232 0.0 0.9 0.00 0.00 0.00 71 1010.1
20260507104529 50 339 0.0 0.0 0.00 0.00 0.00 70 1010.1
20260507103027 51 339 0.0 0.9 0.00 0.00 0.00 70 1010.0
20260507101526 51 352 0.0 1.7 0.00 0.00 0.00 69 1009.8
20260507100034 51 226 0.0 0.0 0.00 0.00 0.00 69 1009.8
20260507094522 52 226 0.0 2.6 0.00 0.00 0.00 68 1009.7
20260507093021 52 326 0.0 0.9 0.00 0.00 0.00 68 1009.9
20260507091522 53 338 0.0 0.9 0.00 0.00 0.00 66 1009.7
20260507090059 53 83 0.0 0.0 0.00 0.00 0.00 67 1009.9
20260507084602 54 124 0.0 0.9 0.00 0.00 0.00 63 1010.0
20260507083042 55 332 0.0 0.9 0.00 0.00 0.00 64 1009.6
20260507081545 55 37 1.7 2.6 0.00 0.00 0.00 62 1009.5
20260507080038 56 295 0.0 0.0 0.00 0.00 0.00 59 1009.3
20260507074535 56 19 0.0 1.7 0.00 0.00 0.00 59 1009.6
20260507073031 58 302 0.0 0.0 0.00 0.00 0.00 55 1009.3
20260507071534 59 302 0.0 0.0 0.00 0.00 0.00 54 1009.4
20260507070024 61 340 0.0 0.0 0.00 0.00 0.00 49 1009.1
20260507064520 62 88 0.0 0.0 0.00 0.00 0.00 49 1008.9
20260507063005 63 105 0.0 0.0 0.00 0.00 0.00 48 1008.6
20260507060059 65 208 0.0 1.7 0.00 0.00 0.00 43 1008.5
20260507054559 66 310 0.0 1.7 0.00 0.00 0.00 43 1008.5
20260507053057 66 228 0.0 4.3 0.00 0.00 0.00 42 1008.5
20260507051556 66 353 0.0 0.0 0.00 0.00 0.00 41 1008.5
20260507050057 67 353 0.0 1.7 0.00 0.00 0.00 41 1008.4
20260507044550 68 116 0.0 1.7 0.00 0.00 0.00 39 1008.3
20260507043032 69 192 0.0 0.9 0.00 0.00 0.00 37 1008.2
20260507041534 71 228 0.0 0.0 0.00 0.00 0.00 35 1007.9
20260507040013 72 228 0.0 4.3 0.00 0.00 0.00 34 1007.7
20260507034511 71 204 3.5 7.8 0.00 0.00 0.00 34 1007.6
20260507033009 70 227 0.0 0.9 0.00 0.00 0.00 41 1007.4
20260507031505 71 312 0.0 0.0 0.00 0.00 0.00 38 1007.2
20260507030002 73 311 0.0 0.9 0.00 0.00 0.00 35 1006.8
20260507024659 74 34 0.0 3.5 0.00 0.00 0.00 34 1006.5
20260507023003 75 242 0.0 2.6 0.00 0.00 0.00 33 1006.5
20260507021608 76 313 0.0 3.5 0.00 0.00 0.00 33 1006.6
20260507020057 77 108 0.0 2.6 0.00 0.00 0.00 32 1006.6
20260507014555 78 318 0.0 5.2 0.00 0.00 0.00 31 1006.4
20260507013054 79 103 0.0 4.3 0.00 0.00 0.00 34 1006.5
20260507011545 80 325 0.0 0.9 0.00 0.00 0.00 34 1006.5
20260507010042 80 299 0.0 1.7 0.00 0.00 0.00 34 1006.2
20260507004540 81 45 0.0 12.2 0.00 0.00 0.00 39 1006.0
20260507003039 81 237 8.7 13.9 0.00 0.00 0.00 39 1005.9
20260507001600 81 227 7.0 12.2 0.00 0.00 0.00 40 1005.6
20260506234513 84 202 4.3 8.7 0.00 0.00 0.00 34 1005.6
20260506233057 84 199 5.2 11.3 0.00 0.00 0.00 35 1005.7
20260506231553 84 188 7.0 13.9 0.00 0.00 0.00 35 1005.8
20260506230049 84 232 7.0 15.6 0.00 0.00 0.00 35 1005.9
20260506224603 83 216 8.7 13.0 0.00 0.00 0.00 35 1006.0
20260506223046 82 196 6.1 10.4 0.00 0.00 0.00 33 1006.3
20260506221543 82 189 6.1 12.2 0.00 0.00 0.00 32 1006.6
20260506220051 82 334 5.2 10.4 0.00 0.00 0.00 31 1006.7
20260506214542 82 147 4.3 8.7 0.00 0.00 0.00 31 1006.8
20260506213029 82 221 7.8 13.9 0.00 0.00 0.00 30 1007.0
20260506211529 83 208 5.2 11.3 0.00 0.00 0.00 32 1007.1
20260506210028 82 241 5.2 10.4 0.00 0.00 0.00 33 1007.5
20260506204530 83 201 6.1 11.3 0.00 0.00 0.00 32 1007.5
20260506203028 82 222 5.2 11.3 0.00 0.00 0.00 34 1007.6
20260506201527 83 221 5.2 13.0 0.00 0.00 0.00 33 1007.7
20260506200027 82 223 3.5 12.2 0.00 0.00 0.00 35 1007.8
20260506194534 81 199 7.0 13.0 0.00 0.00 0.00 36 1008.0
20260506193026 80 202 6.1 13.0 0.00 0.00 0.00 36 1008.1
20260506191513 80 241 7.0 13.9 0.00 0.00 0.00 38 1008.1
20260506190012 79 242 7.0 12.2 0.00 0.00 0.00 40 1008.2
20260506184512 78 222 8.7 15.6 0.00 0.00 0.00 43 1008.1
20260506183012 77 218 7.0 14.8 0.00 0.00 0.00 43 1008.2
20260506181511 77 237 8.7 15.6 0.00 0.00 0.00 41 1008.3
20260506180011 75 218 7.8 13.0 0.00 0.00 0.00 46 1008.6
20260506174510 74 225 7.8 12.2 0.00 0.00 0.00 47 1008.4
20260506173009 74 219 5.2 11.3 0.00 0.00 0.00 49 1008.5
20260506171505 74 198 7.8 11.3 0.00 0.00 0.00 48 1008.6
20260506170004 74 223 1.7 9.6 0.00 0.00 0.00 45 1008.9
20260506164652 73 213 2.6 9.6 0.00 0.00 0.00 46 1008.9
20260506163052 74 210 2.6 7.8 0.00 0.00 0.00 44 1009.0
20260506161552 73 263 0.0 6.1 0.00 0.00 0.00 48 1009.1
20260506160107 72 225 1.7 6.1 0.00 0.00 0.00 46 1009.1
20260506154550 73 237 0.0 5.2 0.00 0.00 0.00 47 1009.1